EW9116 Weather Reports


Display with metric or nautical units.
time (UTC)temp
F
wind
direction
speed
MPH
gust
MPH
rain 1hr
in
rain 24hr
in
rain mn
in
humidity
%
barometer
mb
20260504035556 54 0 0.0 0.0 0.00 0.00 0.00 52 999.9
20260504034806 54 0 0.0 0.0 0.00 0.00 0.00 51 1000.0
20260504034303 54 0 0.0 0.0 0.00 0.00 0.00 52 1000.2
20260504033802 54 0 0.0 0.0 0.00 0.00 0.00 52 1000.3
20260504033304 54 0 0.0 0.0 0.00 0.00 0.00 52 1000.3
20260504032803 54 0 0.0 0.0 0.00 0.00 0.00 52 1000.7
20260504032300 54 0 0.0 0.0 0.00 0.00 0.00 53 1000.8
20260504032047 53 0 0.0 0.0 0.00 0.00 0.00 54 1000.8
20260504031256 53 0 0.0 0.0 0.00 0.00 0.00 55 1001.0
20260504030755 53 0 0.0 0.0 0.00 0.00 0.00 55 1001.1
20260504030255 53 0 0.0 0.0 0.00 0.00 0.00 56 1001.3
20260504025756 52 0 0.0 0.0 0.00 0.00 0.00 54 1001.3
20260504025253 52 0 0.0 0.0 0.00 0.00 0.00 55 1001.5
20260504024754 52 0 0.0 0.0 0.00 0.00 0.00 56 1001.5
20260504024542 53 0 0.0 0.0 0.00 0.00 0.00 55 1001.6
20260504024048 53 0 0.0 0.0 0.00 0.00 0.00 54 1001.6
20260504023253 53 0 0.0 0.0 0.00 0.00 0.00 54 1001.7
20260504022751 53 0 0.0 0.0 0.00 0.00 0.00 52 1001.8
20260504022253 54 0 0.0 0.0 0.00 0.00 0.00 53 1001.8
20260504021752 54 0 0.0 0.0 0.00 0.00 0.00 52 1001.9
20260504021252 54 0 0.0 0.0 0.00 0.00 0.00 52 1001.9
20260504020752 55 0 0.0 0.0 0.00 0.00 0.00 51 1002.0
20260504020251 55 0 0.0 0.0 0.00 0.00 0.00 50 1002.1
20260504015752 56 0 0.0 0.0 0.00 0.00 0.00 51 1002.1
20260504015247 57 0 0.0 0.0 0.00 0.00 0.00 51 1002.0
20260504014816 58 0 0.0 0.0 0.00 0.00 0.00 51 1002.0
20260504013748 59 0 0.0 0.0 0.00 0.00 0.00 46 1002.2
20260504013248 60 0 0.0 0.0 0.00 0.00 0.00 41 1002.3
20260504012746 61 0 0.0 0.0 0.00 0.00 0.00 42 1002.4
20260504012246 61 0 0.0 0.0 0.00 0.00 0.00 40 1002.4
20260504011746 62 0 0.0 0.0 0.00 0.00 0.00 37 1002.3
20260504011246 62 0 0.0 0.0 0.00 0.00 0.00 36 1002.4
20260504011036 63 0 0.0 0.0 0.00 0.00 0.00 36 1002.4
20260504010246 63 0 0.0 0.0 0.00 0.00 0.00 36 1002.5
20260504005745 64 0 0.0 0.0 0.00 0.00 0.00 36 1002.5
20260504005246 64 0 0.0 0.0 0.00 0.00 0.00 35 1002.5
20260504004744 65 0 0.0 0.0 0.00 0.00 0.00 34 1002.5
20260504004244 65 0 0.0 0.0 0.00 0.00 0.00 34 1002.6
20260504003744 65 0 0.0 0.0 0.00 0.00 0.00 34 1002.6
20260504003243 65 0 0.0 0.0 0.00 0.00 0.00 31 1002.6
20260504002742 65 0 0.0 0.0 0.00 0.00 0.00 33 1002.6
20260504002240 66 0 0.0 0.0 0.00 0.00 0.00 32 1002.7
20260504001738 66 0 0.0 0.0 0.00 0.00 0.00 33 1002.8
20260504001239 66 0 0.0 0.0 0.00 0.00 0.00 32 1002.8
20260504001031 67 0 0.0 0.0 0.00 0.00 0.00 31 1002.8
20260504000234 67 0 0.0 0.0 0.00 0.00 0.00 32 1003.0
20260503235730 67 0 0.0 0.0 0.00 0.00 0.00 31 1002.9
20260503235229 67 0 0.0 0.0 0.00 0.00 0.00 31 1002.9
20260503234730 67 0 0.0 0.0 0.00 0.00 0.00 32 1002.9
20260503234230 67 0 0.0 0.0 0.00 0.00 0.00 30 1003.0
20260503234021 67 0 0.0 0.0 0.00 0.00 0.00 28 1003.1
20260503233230 67 0 0.0 0.0 0.00 0.00 0.00 29 1003.1
20260503232731 67 0 0.0 0.0 0.00 0.00 0.00 33 1003.2
20260503232230 67 0 0.0 0.0 0.00 0.00 0.00 34 1003.3
20260503232023 66 0 0.0 0.0 0.00 0.00 0.00 34 1003.2
20260503231233 66 0 0.0 0.0 0.00 0.00 0.00 31 1003.2
20260503230728 67 0 0.0 0.0 0.00 0.00 0.00 31 1003.3
20260503230228 67 0 0.0 0.0 0.00 0.00 0.00 30 1003.2
20260503225730 67 0 0.0 0.0 0.00 0.00 0.00 29 1003.2
20260503225228 68 0 0.0 0.0 0.00 0.00 0.00 32 1003.2
20260503225022 68 0 0.0 0.0 0.00 0.00 0.00 30 1003.3
20260503224228 67 0 0.0 0.0 0.00 0.00 0.00 29 1003.3
20260503223726 68 0 0.0 0.0 0.00 0.00 0.00 28 1003.3
20260503223520 68 0 0.0 0.0 0.00 0.00 0.00 29 1003.3
20260503222722 68 0 0.0 0.0 0.00 0.00 0.00 30 1003.4
20260503222221 68 0 0.0 0.0 0.00 0.00 0.00 30 1003.4
20260503221720 68 0 0.0 0.0 0.00 0.00 0.00 29 1003.4
20260503221217 68 0 0.0 0.0 0.00 0.00 0.00 31 1003.4
20260503220716 68 0 0.0 0.0 0.00 0.00 0.00 31 1003.5
20260503220213 68 0 0.0 0.0 0.00 0.00 0.00 30 1003.7
20260503215711 68 0 0.0 0.0 0.00 0.00 0.00 31 1003.8
20260503215204 68 0 0.0 0.0 0.00 0.00 0.00 31 1003.8
20260503214701 68 0 0.0 0.0 0.00 0.00 0.00 30 1003.8
20260503214203 68 0 0.0 0.0 0.00 0.00 0.00 29 1003.8
20260503213703 68 0 0.0 0.0 0.00 0.00 0.00 29 1003.9
20260503213201 68 0 0.0 0.0 0.00 0.00 0.00 30 1004.0
20260503213027 67 0 0.0 0.0 0.00 0.00 0.00 31 1003.9
20260503211702 67 0 0.0 0.0 0.00 0.00 0.00 31 1004.2
20260503211202 68 0 0.0 0.0 0.00 0.00 0.00 30 1004.1
20260503210702 67 0 0.0 0.0 0.00 0.00 0.00 27 1004.1
20260503210205 67 0 0.0 0.0 0.00 0.00 0.00 27 1004.2
20260503205701 67 0 0.0 0.0 0.00 0.00 0.00 27 1004.2
20260503205209 67 0 0.0 0.0 0.00 0.00 0.00 28 1004.2
20260503204706 67 0 0.0 0.0 0.00 0.00 0.00 31 1004.4
20260503204447 67 0 0.0 0.0 0.00 0.00 0.00 29 1004.4
20260503203700 67 0 0.0 0.0 0.00 0.00 0.00 28 1004.5
20260503203157 67 0 0.0 0.0 0.00 0.00 0.00 33 1004.6
20260503202657 67 0 0.0 0.0 0.00 0.00 0.00 30 1004.6
20260503202157 67 0 0.0 0.0 0.00 0.00 0.00 30 1004.7
20260503201948 66 0 0.0 0.0 0.00 0.00 0.00 30 1004.7
20260503201158 66 0 0.0 0.0 0.00 0.00 0.00 29 1004.8
20260503200654 66 0 0.0 0.0 0.00 0.00 0.00 35 1005.0
20260503200154 66 0 0.0 0.0 0.00 0.00 0.00 33 1005.1
20260503195652 66 0 0.0 0.0 0.00 0.00 0.00 29 1005.1
20260503195150 66 0 0.0 0.0 0.00 0.00 0.00 32 1005.2
20260503194648 65 0 0.0 0.0 0.00 0.00 0.00 30 1005.2
20260503194438 65 0 0.0 0.0 0.00 0.00 0.00 34 1005.2
20260503193644 66 0 0.0 0.0 0.00 0.00 0.00 33 1005.3
20260503193433 66 0 0.0 0.0 0.00 0.00 0.00 29 1005.3
20260503192643 65 0 0.0 0.0 0.00 0.00 0.00 32 1005.3
20260503192141 65 0 0.0 0.0 0.00 0.00 0.00 31 1005.4
20260503191638 65 0 0.0 0.0 0.00 0.00 0.00 33 1005.4
20260503191138 65 0 0.0 0.0 0.00 0.00 0.00 32 1005.4
20260503190635 65 0 0.0 0.0 0.00 0.00 0.00 36 1005.5
20260503190132 65 0 0.0 0.0 0.00 0.00 0.00 33 1005.5
20260503185632 64 0 0.0 0.0 0.00 0.00 0.00 36 1005.7
20260503185416 64 0 0.0 0.0 0.00 0.00 0.00 31 1005.7
20260503184630 65 0 0.0 0.0 0.00 0.00 0.00 29 1005.8
20260503184130 64 0 0.0 0.0 0.00 0.00 0.00 31 1005.9
20260503183918 64 0 0.0 0.0 0.00 0.00 0.00 32 1006.0
20260503183130 64 0 0.0 0.0 0.00 0.00 0.00 31 1006.0
20260503182916 64 0 0.0 0.0 0.00 0.00 0.00 33 1006.1
20260503182130 64 0 0.0 0.0 0.00 0.00 0.00 31 1006.0
20260503181631 63 0 0.0 0.0 0.00 0.00 0.00 29 1006.0
20260503181130 63 0 0.0 0.0 0.00 0.00 0.00 30 1006.1
20260503180629 64 0 0.0 0.0 0.00 0.00 0.00 32 1006.1
20260503180129 64 0 0.0 0.0 0.00 0.00 0.00 31 1006.1
20260503175625 64 0 0.0 0.0 0.00 0.00 0.00 30 1006.1
20260503175125 64 0 0.0 0.0 0.00 0.00 0.00 28 1006.2
20260503174624 63 0 0.0 0.0 0.00 0.00 0.00 33 1006.1
20260503174125 63 0 0.0 0.0 0.00 0.00 0.00 30 1006.3
20260503173625 63 0 0.0 0.0 0.00 0.00 0.00 29 1006.4
20260503173124 63 0 0.0 0.0 0.00 0.00 0.00 27 1006.4
20260503172623 63 0 0.0 0.0 0.00 0.00 0.00 30 1006.5
20260503172122 63 0 0.0 0.0 0.00 0.00 0.00 32 1006.5
20260503171622 63 0 0.0 0.0 0.00 0.00 0.00 36 1006.5
20260503171123 62 0 0.0 0.0 0.00 0.00 0.00 39 1006.5
20260503170622 62 0 0.0 0.0 0.00 0.00 0.00 37 1006.5
20260503170121 62 0 0.0 0.0 0.00 0.00 0.00 35 1006.5
20260503160114 62 0 0.0 0.0 0.00 0.00 0.00 43 1006.2
20260503150550 61 0 0.0 0.0 0.00 0.00 0.00 50 1006.0
20260503131013 55 0 0.0 0.0 0.00 0.00 0.00 61 1005.4
20260503130511 54 0 0.0 0.0 0.00 0.00 0.00 62 1005.4
20260503110456 36 0 0.0 0.0 0.00 0.00 0.00 88 1003.8
20260503090423 43 0 0.0 0.0 0.00 0.00 0.00 77 1003.9
20260503081416 44 0 0.0 0.0 0.00 0.00 0.00 75 1003.9
20260503080918 44 0 0.0 0.0 0.00 0.00 0.00 74 1003.9
20260503080710 45 0 0.0 0.0 0.00 0.00 0.00 73 1004.0
20260503080210 45 0 0.0 0.0 0.00 0.00 0.00 73 1004.1
20260503072917 46 0 0.0 0.0 0.00 0.00 0.00 70 1004.1
20260503072416 47 0 0.0 0.0 0.00 0.00 0.00 69 1004.2
20260503071916 47 0 0.0 0.0 0.00 0.00 0.00 68 1004.3
20260503071415 48 0 0.0 0.0 0.00 0.00 0.00 67 1004.3
20260503070910 48 0 0.0 0.0 0.00 0.00 0.00 65 1004.2
20260503070403 49 0 0.0 0.0 0.00 0.00 0.00 64 1004.2
20260503054900 53 0 0.0 0.0 0.00 0.00 0.00 57 1004.6
20260503054358 53 0 0.0 0.0 0.00 0.00 0.00 56 1004.6
20260503054141 53 0 0.0 0.0 0.00 0.00 0.00 56 1004.8
20260503053356 53 0 0.0 0.0 0.00 0.00 0.00 56 1004.8
20260503052857 53 0 0.0 0.0 0.00 0.00 0.00 56 1004.8
20260503052357 54 0 0.0 0.0 0.00 0.00 0.00 55 1004.8
20260503052146 54 0 0.0 0.0 0.00 0.00 0.00 55 1005.0
20260503051357 54 0 0.0 0.0 0.00 0.00 0.00 54 1004.9
20260503050855 54 0 0.0 0.0 0.00 0.00 0.00 54 1005.0
20260503050354 54 0 0.0 0.0 0.00 0.00 0.00 54 1005.1
20260503045854 54 0 0.0 0.0 0.00 0.00 0.00 54 1005.1
20260503045352 54 0 0.0 0.0 0.00 0.00 0.00 54 1005.3
20260503044846 54 0 0.0 0.0 0.00 0.00 0.00 54 1005.2
20260503044341 55 0 0.0 0.0 0.00 0.00 0.00 54 1005.4
20260503043833 55 0 0.0 0.0 0.00 0.00 0.00 53 1005.4
20260503043334 55 0 0.0 0.0 0.00 0.00 0.00 53 1005.5
20260503042835 55 0 0.0 0.0 0.00 0.00 0.00 53 1005.4
20260503042334 56 0 0.0 0.0 0.00 0.00 0.00 52 1005.6
20260503042118 56 0 0.0 0.0 0.00 0.00 0.00 52 1005.6
20260503041331 56 0 0.0 0.0 0.00 0.00 0.00 52 1005.7
20260503040831 56 0 0.0 0.0 0.00 0.00 0.00 52 1005.9
20260503040330 56 0 0.0 0.0 0.00 0.00 0.00 51 1005.9
20260503035830 57 0 0.0 0.0 0.00 0.00 0.00 51 1006.1